{"data":{"norad_id":62322,"epoch":"2026-09-21T17:58:33.127392Z","epoch_age_seconds":69732,"freshness":"FRESH","line1":"1 62322U 24239X   26264.74899453  .00026277  00000+0  78582-3 0  9990","line2":"2 62322  53.1605 359.5438 0001176  90.0209 270.0928 15.34411636 99458","mean_motion":15.34411636,"eccentricity":0.0001176,"inclination_deg":53.1605,"raan_deg":359.5438,"arg_perigee_deg":90.0209,"mean_anomaly_deg":270.0928,"bstar":0.00078582,"rev_number":9945,"period_min":93.847046399745,"perigee_km":461.86417703637,"apogee_km":463.47313452661,"semimajor_km":6840.8056557815,"source":"CELESTRAK","updated_at":"2026-09-22T09:00:49.575103Z"}}